Date String (YYYY-MM-DD hh:mm:ss) UTC,Instrument flags,Ambient pressure (hPa),Sample flow (lpm),Bypass flow (lpm),Sample temperature (°C),Ambient temperature (°C),ASC tube jacket temperature (°C),LED temperature (°C),Box temperature (°C),Sample RH (%),Span deviation,Mass concentration (μg/m³),Mass concentration (μg/m³),Mass concentration (μg/m³)
DateTimeUTC,F1_M11,P_M11,Q1_M11,Q2_M11,T1_M11,T2_M11,T3_M11,T4_M11,T5_M11,U1_M11,ZSPAN_M11,X0_M11,X2_M11,X1_M11
2021-12-22 14:00:00,,0822.0,4.99,0.00,23.3,22.5,00.0,32.3,25.0,04.9,0000.0,0001.07,0000.41,0000.26
2021-12-22 14:01:00,,0822.1,5.00,0.00,23.3,22.5,00.0,32.3,25.0,04.9,0000.0,0001.10,0000.42,0000.26
2021-12-22 14:02:00,,0822.1,5.02,0.00,23.3,22.5,00.0,32.3,25.0,04.9,0000.0,0001.04,0000.41,0000.27
2021-12-22 14:03:00,,0822.1,4.99,0.00,23.3,22.5,00.0,32.3,25.0,04.9,0000.0,0001.05,0000.41,0000.27
2021-12-22 14:04:00,,0822.1,5.00,0.00,23.3,22.5,00.0,32.3,25.0,04.9,0000.0,0001.07,0000.42,0000.27
2021-12-22 14:05:00,,0821.9,4.99,0.00,23.3,22.6,00.0,32.3,25.1,04.9,0000.0,0001.03,0000.40,0000.26
2021-12-22 14:06:00,,0821.9,5.00,0.00,23.3,22.6,00.0,32.3,25.1,04.8,0000.0,0000.91,0000.38,0000.26
2021-12-22 14:07:00,,0822.0,5.01,0.00,23.3,22.6,00.0,32.3,25.1,04.8,0000.0,0000.68,0000.38,0000.26
2021-12-22 14:08:00,,0821.9,4.98,0.00,23.3,22.6,00.0,32.3,25.1,04.8,0000.0,0000.67,0000.39,0000.26
2021-12-22 14:09:00,,0821.8,5.00,0.00,23.3,22.6,00.0,32.3,25.1,04.8,0000.0,0000.59,0000.36,0000.25
2021-12-22 14:10:00,,0821.9,5.00,0.00,23.4,22.6,00.0,32.3,25.1,04.8,0000.0,0000.56,0000.36,0000.26
2021-12-22 14:11:00,,0821.8,4.99,0.00,23.4,22.6,00.0,32.3,25.1,04.9,0000.0,0000.53,0000.35,0000.26
2021-12-22 14:12:00,,0821.8,5.00,0.00,23.4,22.6,00.0,32.3,25.1,04.9,0000.0,0000.52,0000.33,0000.25
2021-12-22 14:13:00,,0821.8,5.00,0.00,23.4,22.6,00.0,32.3,25.1,04.8,0000.0,0000.52,0000.34,0000.25
2021-12-22 14:14:00,,0821.9,5.00,0.00,23.4,22.6,00.0,32.3,25.1,04.9,0000.0,0000.54,0000.34,0000.25
2021-12-22 14:15:00,,0822.1,5.01,0.00,23.4,22.6,00.0,32.3,25.1,04.9,0000.0,0000.54,0000.34,0000.25
2021-12-22 14:16:00,,0822.2,4.98,0.00,23.4,22.7,00.0,32.3,25.1,04.9,0000.0,0000.55,0000.35,0000.26
2021-12-22 14:17:00,,0822.3,5.01,0.00,23.4,22.7,00.0,32.3,25.1,04.9,0000.0,0000.56,0000.35,0000.26
2021-12-22 14:18:00,,0822.1,4.99,0.00,23.4,22.6,00.0,32.3,25.1,04.8,0000.0,0000.52,0000.34,0000.26
2021-12-22 14:19:00,,0822.0,5.00,0.00,23.3,22.6,00.0,32.3,25.0,04.8,0000.0,0000.48,0000.32,0000.26
2021-12-22 14:20:00,,0821.8,5.01,0.00,23.3,22.6,00.0,32.3,25.0,04.8,0000.0,0000.60,0000.34,0000.25
2021-12-22 14:21:00,,0821.8,4.98,0.00,23.3,22.6,00.0,32.3,25.0,04.8,0000.0,0000.63,0000.34,0000.25
2021-12-22 14:22:00,,0821.7,5.00,0.00,23.3,22.5,00.0,32.3,25.0,04.9,0000.0,0000.61,0000.34,0000.25
2021-12-22 14:23:00,,0822.0,4.99,0.00,23.3,22.5,00.0,32.3,25.0,05.0,0000.0,0000.61,0000.34,0000.25
2021-12-22 14:24:00,,0822.1,5.00,0.00,23.3,22.5,00.0,32.3,25.0,05.0,0000.0,0000.60,0000.34,0000.25
2021-12-22 14:25:00,,0822.0,5.01,0.00,23.3,22.5,00.0,32.3,25.0,04.9,0000.0,0000.59,0000.33,0000.25
2021-12-22 14:26:00,,0822.0,4.99,0.00,23.3,22.5,00.0,32.3,25.0,04.9,0000.0,0000.57,0000.33,0000.25
2021-12-22 14:27:00,,0821.9,5.00,0.00,23.3,22.5,00.0,32.3,25.0,05.0,0000.0,0000.59,0000.33,0000.24
2021-12-22 14:28:00,,0821.8,4.99,0.00,23.3,22.5,00.0,32.3,25.0,04.9,0000.0,0000.58,0000.32,0000.24
2021-12-22 14:29:00,,0822.0,5.01,0.00,23.3,22.5,00.0,32.3,25.0,04.9,0000.0,0000.62,0000.32,0000.23
2021-12-22 14:30:00,,0822.1,4.99,0.00,23.3,22.5,00.0,32.3,24.9,04.9,0000.0,0001.25,0000.32,0000.23
2021-12-22 14:31:00,,0822.1,5.00,0.00,23.3,22.5,00.0,32.3,24.9,04.9,0000.0,0001.20,0000.32,0000.23
2021-12-22 14:32:00,,0822.0,5.01,0.00,23.2,22.5,00.0,32.3,24.9,04.9,0000.0,0001.22,0000.33,0000.23
2021-12-22 14:33:00,,0822.3,4.98,0.00,23.2,22.5,00.0,32.3,24.9,04.9,0000.0,0001.37,0000.36,0000.24
2021-12-22 14:34:00,,0822.4,5.00,0.00,23.2,22.4,00.0,32.3,24.9,04.9,0000.0,0001.44,0000.37,0000.24
2021-12-22 14:35:00,,0822.2,5.01,0.00,23.2,22.3,00.0,32.3,24.9,04.9,0000.0,0001.61,0000.41,0000.25
2021-12-22 14:36:00,,0822.2,4.99,0.00,23.2,22.3,00.0,32.2,24.8,05.0,0000.0,0001.61,0000.41,0000.25
2021-12-22 14:37:00,,0822.2,4.99,0.00,23.1,22.3,00.0,32.2,24.8,05.0,0000.0,0001.61,0000.42,0000.25
2021-12-22 14:38:00,,0822.3,5.00,0.00,23.1,22.3,00.0,32.2,24.8,05.0,0000.0,0001.59,0000.42,0000.25
2021-12-22 14:39:00,,0822.4,5.01,0.00,23.1,22.3,00.0,32.2,24.8,05.0,0000.0,0001.61,0000.43,0000.25
2021-12-22 14:40:00,,0822.4,4.99,0.00,23.1,22.3,00.0,32.2,24.8,05.1,0000.0,0001.62,0000.45,0000.26
2021-12-22 14:41:00,,0822.4,5.02,0.00,23.1,22.3,00.0,32.2,24.8,05.1,0000.0,0000.99,0000.46,0000.26
2021-12-22 14:42:00,,0822.4,4.99,0.00,23.1,22.3,00.0,32.2,24.7,05.2,0000.0,0000.97,0000.46,0000.26
2021-12-22 14:43:00,,0822.4,5.01,0.00,23.1,22.3,00.0,32.2,24.8,05.2,0000.0,0000.89,0000.44,0000.26
2021-12-22 14:44:00,,0822.4,5.00,0.00,23.1,22.3,00.0,32.1,24.8,05.2,0000.0,0000.79,0000.42,0000.25
2021-12-22 14:45:00,,0822.4,4.99,0.00,23.1,22.3,00.0,32.1,24.8,05.2,0000.0,0000.70,0000.40,0000.25
2021-12-22 14:46:00,,0822.4,5.01,0.00,23.1,22.3,00.0,32.1,24.8,05.2,0000.0,0000.55,0000.37,0000.25
2021-12-22 14:47:00,,0822.4,4.99,0.00,23.1,22.3,00.0,32.1,24.7,05.2,0000.0,0000.55,0000.37,0000.25
2021-12-22 14:48:00,,0822.4,5.01,0.00,23.0,22.3,00.0,32.1,24.7,05.2,0000.0,0000.58,0000.37,0000.24
2021-12-22 14:49:00,,0822.4,5.00,0.00,23.0,22.3,00.0,32.1,24.7,05.3,0000.0,0000.59,0000.37,0000.24
2021-12-22 14:50:00,,0822.4,5.01,0.00,23.0,22.3,00.0,32.1,24.7,05.2,0000.0,0000.60,0000.37,0000.24
2021-12-22 14:51:00,,0822.5,4.98,0.00,23.0,22.3,00.0,32.1,24.7,05.2,0000.0,0000.59,0000.36,0000.24
2021-12-22 14:52:00,,0822.4,5.01,0.00,23.0,22.3,00.0,32.1,24.7,05.2,0000.0,0000.55,0000.33,0000.24
2021-12-22 14:53:00,,0822.4,4.99,0.00,23.0,22.3,00.0,32.1,24.7,05.3,0000.0,0000.53,0000.32,0000.23
2021-12-22 14:54:00,,0822.4,5.01,0.00,23.0,22.3,00.0,32.1,24.7,05.3,0000.0,0000.53,0000.33,0000.23
2021-12-22 14:55:00,,0822.4,4.99,0.00,23.0,22.3,00.0,32.1,24.7,05.3,0000.0,0000.52,0000.32,0000.23
2021-12-22 14:56:00,,0822.4,5.01,0.00,23.0,22.3,00.0,32.1,24.7,05.3,0000.0,0000.80,0000.31,0000.22
2021-12-22 14:57:00,,0822.4,4.98,0.00,23.0,22.3,00.0,32.1,24.8,05.2,0000.0,0000.79,0000.31,0000.22
2021-12-22 14:58:00,,0822.4,5.00,0.00,23.0,22.3,00.0,32.0,24.7,05.1,0000.0,0000.79,0000.31,0000.23
2021-12-22 14:59:00,,0822.4,5.00,0.00,23.0,22.3,00.0,32.0,24.7,05.2,0000.0,0000.74,0000.30,0000.23
